Mexico City Airport, Mexico

4:30 PM CDT on July 25, 2017 (GMT -0500)
Lic Benito Juarez International

Weather History for MMMX - December, 2011

Change the Weather History Date:

Sunday, December 18, 2011

  Actual Average Record
Temperature  
Mean Temperature 58 °F -  
Max Temperature 71 °F 68 °F 78 °F (2008)
Min Temperature 44 °F 40 °F 35 °F (1998)
Degree Days  
Heating Degree Days 8    
Growing Degree Days 8 (Base 50)    
Moisture  
Dew Point 42 °F    
Average Humidity 61    
Maximum Humidity 93    
Minimum Humidity 29    
Precipitation  
Precipitation 0.00 in - - ()
Sea Level Pressure  
Sea Level Pressure 30.33 in    
Wind  
Wind Speed 4 mph ()    
Max Wind Speed 10 mph    
Max Gust Speed -    
Visibility 13.1 miles    
Events      
Averages and records for this station are not official NWS values.
T = Trace of Precipitation, MM = Missing Value Source: Averaged Metar Reports

Daily Weather History Graph

Daily Weather History Graph

Search for Another Location

Airport or City:

Trip Planner

Search our weather history database for the weather conditions in past years. The results will help you decide how hot, cold, wet, or windy it might be!

Date:

Astronomy

Dec. 18, 2011 Rise Set
Actual Time 7:04 AM CST 6:01 PM CST
Civil Twilight 6:40 AM CST 6:25 PM CST
Nautical Twilight 6:12 AM CST 6:53 PM CST
Astronomical Twilight 5:45 AM CST 7:20 PM CST
Moon 12:46 AM CST (12/18) 12:53 PM CST (12/18)
Length of Visible Light 11h 45m
Length of Day
10h 57m
Last Quarter, 42% of the Moon is Illuminated
Dec 18
Last Quarter
Dec 24
New
Jan 1
First Quarter
Jan 9
Full
Jan 16
Last Quarter

Hourly Weather History & Observations

Time (CST) Temp. Windchill Dew Point Humidity Pressure Visibility Wind Dir Wind Speed Gust Speed Precip Events Conditions
12:45 AM 53.6 °F - 44.6 °F 72% 30.48 in 15.0 mi SSW 5.8 mph - N/A   Scattered Clouds
1:46 AM 51.8 °F - 44.6 °F 76% 30.48 in 15.0 mi NW 6.9 mph - N/A   Partly Cloudy
2:45 AM 51.8 °F - 44.6 °F 76% 30.06 in 15.0 mi WNW 5.8 mph - N/A   Scattered Clouds
3:47 AM 50.0 °F - 44.6 °F 82% 30.45 in 15.0 mi WNW 9.2 mph - N/A   Partly Cloudy
4:44 AM 50.0 °F - 44.6 °F 82% 30.45 in 15.0 mi NW 8.1 mph - N/A   Scattered Clouds
5:46 AM 48.2 °F - 42.8 °F 82% 30.10 in 15.0 mi NNW 6.9 mph - N/A   Scattered Clouds
6:20 AM 44.6 °F - 42.8 °F 93% 30.46 in 15.0 mi Calm Calm - N/A   Partly Cloudy
6:21 AM 44.6 °F - 42.8 °F 93% 30.46 in 15.0 mi Calm Calm - N/A   Partly Cloudy
6:46 AM 44.6 °F 43.1 °F 42.8 °F 93% 30.46 in 10.0 mi East 3.5 mph - N/A   Partly Cloudy
7:22 AM 44.6 °F - 42.8 °F 93% 30.46 in 10.0 mi Calm Calm - N/A   Partly Cloudy
7:45 AM 46.4 °F - 42.8 °F 87% 30.46 in 10.0 mi Calm Calm - N/A   Partly Cloudy
8:22 AM 50.0 °F - 44.6 °F 82% 30.47 in 10.0 mi Calm Calm - N/A   Clear
8:41 AM 53.6 °F - 44.6 °F 72% 30.48 in 13.0 mi Calm Calm - N/A   Clear
8:44 AM 53.6 °F - 44.6 °F 72% 30.15 in 13.0 mi Calm Calm - N/A   Clear
9:24 AM 55.4 °F - 44.6 °F 67% 30.49 in 15.0 mi ENE 4.6 mph - N/A   Clear
9:45 AM 57.2 °F - 44.6 °F 63% 30.48 in 15.0 mi NE 4.6 mph - N/A   Partly Cloudy
10:45 AM 59.0 °F - 44.6 °F 59% 30.47 in 15.0 mi NE 6.9 mph - N/A   Partly Cloudy
11:28 AM 62.6 °F - 44.6 °F 52% 30.45 in 15.0 mi North 8.1 mph - N/A   Partly Cloudy
12:48 PM 66.2 °F - 41.0 °F 40% 30.42 in 15.0 mi North 9.2 mph - N/A   Scattered Clouds
12:49 PM 66.2 °F - 41.0 °F 40% 30.41 in 15.0 mi North 9.2 mph - N/A   Scattered Clouds
1:45 PM 68.0 °F - 37.4 °F 33% 30.37 in 12.0 mi NW 3.5 mph - N/A   Scattered Clouds
2:39 PM 71.6 °F - 37.4 °F 29% 30.32 in 12.0 mi Calm Calm - N/A   Scattered Clouds
2:42 PM 71.6 °F - 37.4 °F 29% 29.89 in 12.0 mi Calm Calm - N/A   Scattered Clouds
3:42 PM 71.6 °F - 37.4 °F 29% 30.29 in 10.0 mi Calm Calm - N/A   Scattered Clouds
5:50 PM 66.2 °F - 37.4 °F 35% 30.30 in 12.0 mi SE 10.4 mph - N/A   Scattered Clouds
5:52 PM 66.2 °F - 37.4 °F 35% 29.89 in 12.0 mi SE 10.4 mph - N/A   Scattered Clouds
6:46 PM 64.4 °F - 39.2 °F 40% 30.31 in 12.0 mi South 10.4 mph - N/A   Partly Cloudy
7:46 PM 62.6 °F - 41.0 °F 45% 30.33 in 12.0 mi South 8.1 mph - N/A   Partly Cloudy
8:46 PM 60.8 °F - 39.2 °F 45% 29.91 in 12.0 mi South 8.1 mph - N/A   Scattered Clouds
9:49 PM 59.0 °F - 39.2 °F 48% 30.37 in 12.0 mi SSE 6.9 mph - N/A   Scattered Clouds
10:52 PM 57.2 °F - 44.6 °F 63% 30.37 in 12.0 mi South 5.8 mph - N/A   Scattered Clouds
11:50 PM 55.4 °F - 41.0 °F 58% 29.94 in 12.0 mi SW 3.5 mph - N/A   Clear